SCP
0 0 0 -0 -0 -0 -0 -0 -0 0 -0 0 0 0 0 -0 0 -0 -0 -0 -0 -0 -0 -0 0 0 0 0 0 0 0 0 0 0 0 0 0 0 0 0 -0 0 0 0 0
0 0 0 0 -0 -0 -0 -0 -0 -0 -0 -0 0 0 0 -0 0 -0 -0 -0 -0 -0 -0 -0 0 0 0 0 0 0 0 0 0 0 0 0 0 0 0 -0 -0 0 0 0 0
0 0 0 0 -0 -0 -0 -0 -0 -0 -0 0 0 0 0 -0 -0 -0 -0 -0 -0 -0 0 0 0 0 0 0 0 0 0 0 0 0 0 0 -0 -0 0 0 0 0 0 0 0
0 0 0 0 0 -0 -0 -0 -0 -0 -0 0 0 -0 0 -0 0 -0 -0 -0 -0 -0 0 0 0 0 0 0 0 -0 0 0 0 0 0 -0 -0 -0 -0 0 0 0 0 0 0
0 0 0 0 0 -0 -0 -0 -0 -0 -0 0 0 -0 0 -0 -0 -0 -0 -0 -0 -0 -0 -0 -0 0 -0 -0 -0 0 0 0 0 0 0 0 -0 -0 -0 0 0 0 0 0 0
0 0 0 0 0 0 -0 -0 -0 -0 -0 0 0 -0 0 -0 -0 -0 -0 -0 -0 -0 -0 -0 -0 -0 -0 0 -0 -0 -0 -0 -0 -0 -0 -0 -0 0 0 0 0 0 0 0 0
0 0 0 0 0 0 -0 -0 -0 -0 -0 -0 -0 -0 -0 -0 -0 -0 -0 -0 -0 -0 -0 0 -0 0 -0 -0 -0 -0 -0 -0 -0 0 0 0 0 0 0 0 0 0 0 0 0
0 0 0 0 0 0 0 -0 -0 -0 -0 -0 -0 -0 -0 -0 -0 -0 -0 -0 -0 -0 -0 -0 -0 -0 0 -0 -0 -0 -0 0 -0 0 0 -0 -0 0 0 0 0 0 0 0 0
0 0 0 0 0 0 0 -0 -0 -0 0 -0 0 0 -0 0 -0 -0 -0 -0 0 -0 -0 0 -0 -0 -0 -0 -0 -0 -0 -0 -0 0 0 0 0 0 0 0 0 0 0 0 0
0 0 0 0 0 0 0 0 0 0 0 0 0 0 0 0 0 -0 -0 -0 0 0 -0 0 0 0 0 -0 -0 -0 -0 0 0 0 0 0 0 0 0 0 0 0 0 0 0
0 0 0 0 0 0 0 0 0 0 -0 -0 -0 -0 -0 -0 0 -0 0 -0 0 -0 -0 -0 -0 -0 -0 -0 -0 0 0 0 0 0 0 0 0 0 0 0 0 0 0 0 0
0 0 0 0 0 0 0 0 0 -0 -0 -0 -0 -0 0 0 -0 -0 0 -0 -0 -0 -0 -0 -0 -0 0 0 0 0 0 0 0 0 0 0 0 0 0 0 0 0 0 0 0
0 0 0 0 0 0 0 0 0 0 0 0 0 0 0 -0 -0 -0 0 -0 -0 -0 -0 -0 0 0 0 0 0 0 0 0 0 0 0 0 0 0 0 0 0 0 0 0 0
0 0 0 0 0 0 0 0 0 0 0 0 0 0 0 0 0 0 0 0 0 0 0 0 0 0 0 0 0 0 0 0 0 0 0 0 0 0 0 0 0 0 0 0 0
0 0 0 0 0 0 0 0 0 0 0 0 0 0 0 0 0 0 0 0 0 0 0 0 0 0 0 0 0 0 0 0 0 0 0 0 0 0 0 0 0 0 0 0 0
0 0 0 0 0 0 0 0 0 0 0 0 0 0 0 0 0 0 0 0 0 -0 -0 0 0 0 0 0 0 0 0 0 0 0 0 0 0 0 0 0 0 0 0 0 0
0 0 0 0 0 0 0 0 0 0 0 0 0 0 0 0 0 0 0 0 0 0 0 0 0 0 0 0 0 0 0 0 0 0 0 0 0 0 0 0 0 0 0 0 0
0 0 0 0 0 0 0 0 0 0 0 0 0 0 0 0 0 0 0 0 0 0 0 0 0 0 0 0 0 0 0 0 0 0 0 0 0 0 0 0 0 0 0 0 0
0 0 0 0 0 0 0 0 0 0 0 0 0 0 0 0 0 0 0 0 0 0 0 0 0 0 0 0 0 0 0 0 0 0 0 0 0 0 0 0 0 0 0 0 0
0 0 0 0 0 0 0 0 0 0 0 0 0 0 0 0 0 0 0 0 0 0 0 0 0 0 0 0 0 0 0 0 0 0 0 0 0 0 0 0 0 0 0 0 0
0 0 0 0 0 0 0 0 0 0 0 0 0 0 0 0 0 0 0 0 0 0 0 0 0 0 0 0 0 0 0 0 0 0 0 0 0 0 0 0 0 0 0 0 0
0 0 0 0 0 0 0 0 0 0 0 0 0 0 0 0 0 0 0 0 0 0 0 0 0 0 0 0 0 0 0 0 0 0 0 0 0 0 0 0 0 0 0 0 0
0 0 0 0 0 0 0 0 0 0 0 0 0 0 0 0 0 0 0 0 0 0 0 0 0 0 0 0 0 0 0 0 0 0 0 0 0 0 0 0 0 0 0 0 0
0 0 0 0 0 0 0 0 0 0 0 0 0 0 0 0 0 0 0 0 0 0 0 0 0 0 0 0 0 0 0 0 0 0 0 0 0 0 0 0 0 0 0 0 0
0 0 0 0 0 0 0 0 0 0 0 0 0 0 0 0 0 0 0 0 0 0 0 0 0 0 0 0 0 0 0 0 0 0 0 0 0 0 0 0 0 0 0 0 0
0 0 0 0 0 0 0 0 0 0 0 0 0 0 0 0 0 0 0 0 0 0 0 0 0 0 0 0 0 0 0 0 0 0 0 0 0 0 0 0 0 0 0 0 0
0 0 0 0 0 0 0 0 0 0 0 0 0 0 0 0 0 0 0 0 0 0 0 0 0 0 0 0 0 0 0 0 0 0 0 0 0 0 0 0 0 0 0 0 0
Wind_Speed_500mb
20 19 17 16 16 13 14 17 23 29 27 19 21 24 30 50 49 32 44 38 33 16 17 14 10 13 17 17 6 6 16 22 21 30 25 27 34 47 52 60 67 59 52 40 39
20 18 17 16 17 16 16 17 21 27 27 18 11 13 16 23 20 56 36 30 18 13 22 20 15 11 23 17 12 5 26 25 30 33 31 42 29 36 47 53 54 52 48 45 46
20 17 17 17 18 16 17 18 19 22 21 12 0 8 5 9 11 41 40 36 22 16 9 12 17 26 33 27 11 23 26 29 27 24 23 37 53 44 33 38 46 45 43 44 46
20 18 17 18 16 15 18 20 22 20 18 9 9 27 24 8 6 37 38 44 37 22 10 8 7 16 21 21 35 42 35 36 35 26 27 33 42 50 50 38 32 35 36 40 46
22 17 18 18 18 17 19 22 24 23 23 16 20 25 24 31 29 29 42 39 31 26 21 22 19 19 26 48 52 39 43 45 39 35 34 36 43 39 39 33 29 29 34 38 40
23 20 19 19 19 19 23 27 27 24 27 18 22 29 16 41 22 25 30 34 36 30 33 27 44 43 27 19 22 37 39 31 29 27 31 30 36 23 31 27 29 31 33 36 38
25 22 20 21 22 23 28 31 27 26 30 26 28 36 53 28 16 16 27 34 30 32 33 19 16 1 39 48 47 45 38 34 19 12 7 4 28 26 21 22 27 30 31 33 35
27 24 22 24 26 27 34 38 36 27 23 18 28 22 23 20 16 20 19 27 35 29 26 28 33 34 14 38 20 15 15 9 14 2 5 12 23 19 18 22 26 28 30 32 35
29 27 26 27 33 35 39 35 29 23 20 17 13 20 19 14 24 18 18 17 19 29 24 27 26 32 34 22 17 13 9 21 16 14 2 12 22 14 16 20 24 29 30 32 34
31 30 31 35 41 43 41 33 32 18 15 11 5 19 18 14 23 20 16 18 16 13 22 17 17 19 9 15 3 15 14 12 14 14 13 21 21 14 14 19 23 26 29 32 35
32 33 34 42 48 48 45 44 15 14 35 32 31 52 39 29 24 31 15 20 18 22 31 40 27 24 21 21 19 13 15 20 16 9 2 12 16 17 12 15 19 22 25 30 33
33 35 39 50 53 52 44 20 7 42 34 39 40 36 22 13 26 33 18 6 11 26 38 31 31 17 16 16 16 13 13 15 12 12 10 6 17 13 10 12 16 19 22 23 26
39 41 47 53 55 57 20 9 28 18 14 15 19 22 29 24 23 21 17 33 33 28 27 25 16 13 12 15 20 22 15 8 11 5 2 7 18 18 13 10 12 17 19 22 25
42 44 51 55 48 30 15 18 46 17 4 10 7 7 7 13 16 20 13 7 7 24 23 24 11 10 17 17 17 6 10 6 6 12 1 3 3 18 13 10 11 14 18 21 25
45 49 54 56 21 36 19 54 23 1 4 11 10 9 10 6 26 17 14 30 17 13 6 13 19 9 14 11 13 11 5 6 8 11 7 10 13 20 10 10 4 7 13 16 22
48 52 54 50 29 35 32 40 3 5 7 12 15 24 18 15 14 11 13 22 28 40 40 22 13 19 8 2 7 3 9 10 11 7 11 10 10 21 9 9 13 4 14 21 30
49 52 54 41 25 32 46 18 4 5 16 17 22 23 20 19 12 11 11 10 2 10 10 18 14 10 12 8 3 9 8 5 7 8 4 11 12 17 8 7 10 17 22 29 36
49 50 53 50 33 37 39 8 7 10 14 14 31 30 18 24 14 10 11 12 9 4 14 10 9 11 11 12 8 7 7 3 9 6 7 14 11 10 6 7 8 13 20 31 33
45 40 35 44 41 45 27 5 10 17 19 28 29 25 22 17 11 12 5 9 6 4 3 7 7 9 10 13 9 4 2 7 6 2 8 4 12 7 8 4 2 13 17 20 24
34 27 19 40 50 41 8 7 7 5 25 37 13 18 19 26 19 18 14 6 12 5 2 5 9 8 8 6 11 10 5 5 4 1 7 11 17 4 17 3 5 13 15 18 21
34 19 23 42 49 27 5 8 8 19 28 20 7 13 14 29 16 19 17 13 8 11 3 11 3 12 7 9 3 7 7 4 2 6 6 10 3 12 10 2 8 12 13 16 20
29 8 33 56 19 8 7 12 16 24 12 4 7 6 20 24 15 11 14 5 20 20 13 7 2 9 6 7 5 5 3 10 5 5 10 10 12 18 11 1 8 12 11 16 19
24 14 40 34 9 12 17 16 14 27 23 14 9 6 11 19 10 16 21 14 22 13 12 15 8 7 11 9 5 6 4 6 4 7 20 8 2 16 11 15 12 17 19 18 22
20 8 17 16 12 28 27 19 16 16 18 11 19 20 19 18 8 20 21 12 19 11 10 6 8 7 6 3 10 8 17 13 10 8 11 27 32 20 21 22 19 20 21 23 24
11 11 22 11 12 37 33 26 28 16 17 22 13 14 20 13 15 14 22 24 18 17 12 3 4 1 9 19 19 18 21 27 30 25 15 16 26 25 29 27 27 26 29 29 29
15 12 14 21 36 36 26 26 32 21 28 30 16 22 19 15 10 22 22 19 12 22 13 8 1 7 9 15 19 27 34 34 38 39 44 45 50 46 32 26 32 30 31 34 34
10 24 16 24 35 22 22 25 32 29 6 23 21 25 18 16 12 19 19 20 14 20 21 12 6 3 6 7 18 23 31 38 36 36 34 34 37 35 34 36 32 34 33 37 37
Wind_Direction_500mb
146 136 130 134 136 153 150 133 120 111 112 122 101 78 75 74 51 44 41 4 356 30 64 7 86 109 96 81 78 220 136 94 85 83 63 64 81 72 69 65 60 59 56 48 37
147 142 136 146 150 165 147 133 126 124 121 134 111 63 64 78 57 37 22 21 21 45 63 42 62 120 90 68 19 257 100 94 102 95 76 62 56 84 64 55 52 51 47 45 45
151 147 149 155 161 168 147 131 123 130 137 169 351 5 75 90 55 7 17 25 40 67 29 53 88 84 79 53 67 65 102 123 115 72 93 84 63 48 65 48 42 40 39 38 42
154 155 160 160 166 172 147 132 127 127 132 169 76 75 66 25 44 351 22 29 34 39 39 47 148 92 82 91 82 96 92 113 106 89 82 76 78 65 60 59 43 41 38 37 38
154 164 168 164 168 170 141 125 118 115 113 115 90 85 78 71 34 2 20 24 29 45 68 75 78 60 86 99 94 91 95 93 94 87 86 81 71 69 53 47 43 41 40 37 36
159 170 171 167 171 164 137 127 120 115 109 114 97 95 94 76 26 24 28 32 43 50 70 88 88 96 84 69 96 113 97 98 96 99 91 86 63 66 45 40 44 42 38 37 33
163 169 174 172 166 159 138 130 126 116 116 117 107 79 75 62 31 46 31 39 44 62 74 91 114 34 110 94 116 120 104 83 59 74 76 306 66 45 35 44 43 43 40 39 33
167 170 174 170 161 153 136 126 123 128 127 115 96 90 75 39 50 36 49 53 52 54 79 88 96 105 98 127 143 164 192 166 58 185 12 228 90 60 36 45 45 41 39 35 33
170 172 171 169 157 148 139 128 115 112 119 112 70 105 84 38 39 36 62 43 43 54 75 89 94 107 137 148 156 200 98 102 106 34 125 243 109 77 60 52 51 40 33 32 31
172 173 168 166 155 148 141 125 107 72 87 94 32 90 67 64 47 31 42 37 41 77 81 99 123 134 109 245 30 125 111 72 61 25 86 87 106 108 74 59 48 39 30 27 25
175 172 167 164 156 148 141 123 117 74 76 87 75 98 102 84 63 41 48 51 87 75 76 51 86 68 60 44 60 74 106 97 79 35 99 90 112 104 81 58 46 43 32 22 18
177 173 167 165 160 159 156 214 51 135 93 85 85 86 94 90 63 43 37 72 90 100 109 87 71 65 64 75 78 79 111 88 108 53 270 170 129 112 86 74 53 27 33 27 18
178 174 168 166 165 169 174 231 147 148 111 80 83 86 78 90 58 46 68 61 80 88 63 78 87 61 72 87 82 51 39 36 359 48 78 218 163 170 130 122 56 43 28 22 21
176 171 166 167 166 183 199 195 156 158 138 128 150 87 96 122 63 50 38 70 76 96 84 67 80 93 86 65 318 106 16 302 267 251 268 239 100 172 136 136 82 39 23 15 6
174 170 168 165 192 180 204 176 171 10 188 171 115 115 134 78 140 51 61 70 89 114 179 95 61 74 73 39 334 57 304 271 257 258 236 162 257 113 167 197 105 16 358 358 353
173 170 169 176 159 190 196 177 210 267 213 162 151 151 118 107 80 94 89 100 85 79 84 101 89 42 47 55 13 100 192 198 226 251 239 105 310 136 124 9 328 343 328 330 331
173 170 169 180 185 182 171 163 169 210 160 165 166 172 134 134 111 129 134 105 121 115 115 116 74 96 19 231 209 198 222 221 213 203 294 115 269 59 36 335 324 330 327 322 329
173 174 181 180 182 173 167 196 192 156 191 152 153 148 142 138 125 145 157 115 74 329 148 176 164 358 10 22 355 31 333 302 254 293 342 150 240 99 24 312 302 295 321 335 341
168 168 179 186 173 169 171 191 178 172 140 156 155 162 147 147 154 156 162 111 86 349 157 140 111 102 54 39 314 69 111 3 305 241 267 207 119 212 174 150 342 335 332 347 349
151 149 171 177 167 158 175 228 160 169 156 163 168 206 170 164 159 184 167 136 127 113 259 122 129 206 128 250 60 1 82 205 61 308 271 274 239 212 179 198 342 337 344 344 344
152 150 172 165 155 174 196 190 144 157 153 196 151 185 174 158 166 169 146 140 143 132 183 129 132 147 191 210 149 150 144 88 328 303 285 298 26 86 137 155 327 328 332 339 339
156 122 162 151 142 156 188 167 140 154 148 136 168 126 160 162 162 135 155 128 159 150 141 70 158 167 121 106 313 311 192 187 238 184 254 292 294 120 141 271 288 306 308 323 325
129 117 162 153 139 195 156 144 169 166 163 167 143 136 141 160 136 131 127 124 152 158 161 167 167 152 174 170 190 231 123 98 98 266 245 246 274 152 166 261 276 288 296 296 312
145 114 162 203 207 186 180 171 148 191 146 168 132 139 139 139 119 149 126 148 161 144 110 151 199 225 316 74 114 169 197 201 202 211 258 237 269 271 237 264 292 294 289 289 300
161 169 173 175 217 193 187 180 161 155 185 175 173 177 160 156 153 152 130 137 173 146 177 206 191 268 253 247 245 233 200 198 216 225 236 276 303 311 314 304 293 290 283 279 289
139 146 177 169 173 185 183 197 178 169 166 183 192 175 156 162 177 176 157 170 164 172 178 162 202 284 261 250 265 269 260 241 228 227 247 262 275 281 293 284 290 277 285 285 287
154 138 146 165 173 176 188 188 187 157 190 181 187 164 161 113 111 140 155 164 152 172 182 165 153 207 268 336 317 278 258 239 245 238 243 255 269 295 297 286 277 270 280 286 287
Wind_Speed_850mb
20 19 17 16 16 13 14 17 23 29 27 19 21 24 30 50 49 32 44 38 33 16 17 14 10 13 17 17 6 6 16 22 21 30 25 27 34 47 52 60 67 59 52 40 39
20 18 17 16 17 16 16 17 21 27 27 18 11 13 16 23 20 56 36 30 18 13 22 20 15 11 23 17 12 5 26 25 30 33 31 42 29 36 47 53 54 52 48 45 46
20 17 17 17 18 16 17 18 19 22 21 12 0 8 5 9 11 41 40 36 22 16 9 12 17 26 33 27 11 23 26 29 27 24 23 37 53 44 33 38 46 45 43 44 46
20 18 17 18 16 15 18 20 22 20 18 9 9 27 24 8 6 37 38 44 37 22 10 8 7 16 21 21 35 42 35 36 35 26 27 33 42 50 50 38 32 35 36 40 46
22 17 18 18 18 17 19 22 24 23 23 16 20 25 24 31 29 29 42 39 31 26 21 22 19 19 26 48 52 39 43 45 39 35 34 36 43 39 39 33 29 29 34 38 40
23 20 19 19 19 19 23 27 27 24 27 18 22 29 16 41 22 25 30 34 36 30 33 27 44 43 27 19 22 37 39 31 29 27 31 30 36 23 31 27 29 31 33 36 38
25 22 20 21 22 23 28 31 27 26 30 26 28 36 53 28 16 16 27 34 30 32 33 19 16 1 39 48 47 45 38 34 19 12 7 4 28 26 21 22 27 30 31 33 35
27 24 22 24 26 27 34 38 36 27 23 18 28 22 23 20 16 20 19 27 35 29 26 28 33 34 14 38 20 15 15 9 14 2 5 12 23 19 18 22 26 28 30 32 35
29 27 26 27 33 35 39 35 29 23 20 17 13 20 19 14 24 18 18 17 19 29 24 27 26 32 34 22 17 13 9 21 16 14 2 12 22 14 16 20 24 29 30 32 34
31 30 31 35 41 43 41 33 32 18 15 11 5 19 18 14 23 20 16 18 16 13 22 17 17 19 9 15 3 15 14 12 14 14 13 21 21 14 14 19 23 26 29 32 35
32 33 34 42 48 48 45 44 15 14 35 32 31 52 39 29 24 31 15 20 18 22 31 40 27 24 21 21 19 13 15 20 16 9 2 12 16 17 12 15 19 22 25 30 33
33 35 39 50 53 52 44 20 7 42 34 39 40 36 22 13 26 33 18 6 11 26 38 31 31 17 16 16 16 13 13 15 12 12 10 6 17 13 10 12 16 19 22 23 26
39 41 47 53 55 57 20 9 28 18 14 15 19 22 29 24 23 21 17 33 33 28 27 25 16 13 12 15 20 22 15 8 11 5 2 7 18 18 13 10 12 17 19 22 25
42 44 51 55 48 30 15 18 46 17 4 10 7 7 7 13 16 20 13 7 7 24 23 24 11 10 17 17 17 6 10 6 6 12 1 3 3 18 13 10 11 14 18 21 25
45 49 54 56 21 36 19 54 23 1 4 11 10 9 10 6 26 17 14 30 17 13 6 13 19 9 14 11 13 11 5 6 8 11 7 10 13 20 10 10 4 7 13 16 22
48 52 54 50 29 35 32 40 3 5 7 12 15 24 18 15 14 11 13 22 28 40 40 22 13 19 8 2 7 3 9 10 11 7 11 10 10 21 9 9 13 4 14 21 30
49 52 54 41 25 32 46 18 4 5 16 17 22 23 20 19 12 11 11 10 2 10 10 18 14 10 12 8 3 9 8 5 7 8 4 11 12 17 8 7 10 17 22 29 36
49 50 53 50 33 37 39 8 7 10 14 14 31 30 18 24 14 10 11 12 9 4 14 10 9 11 11 12 8 7 7 3 9 6 7 14 11 10 6 7 8 13 20 31 33
45 40 35 44 41 45 27 5 10 17 19 28 29 25 22 17 11 12 5 9 6 4 3 7 7 9 10 13 9 4 2 7 6 2 8 4 12 7 8 4 2 13 17 20 24
34 27 19 40 50 41 8 7 7 5 25 37 13 18 19 26 19 18 14 6 12 5 2 5 9 8 8 6 11 10 5 5 4 1 7 11 17 4 17 3 5 13 15 18 21
34 19 23 42 49 27 5 8 8 19 28 20 7 13 14 29 16 19 17 13 8 11 3 11 3 12 7 9 3 7 7 4 2 6 6 10 3 12 10 2 8 12 13 16 20
29 8 33 56 19 8 7 12 16 24 12 4 7 6 20 24 15 11 14 5 20 20 13 7 2 9 6 7 5 5 3 10 5 5 10 10 12 18 11 1 8 12 11 16 19
24 14 40 34 9 12 17 16 14 27 23 14 9 6 11 19 10 16 21 14 22 13 12 15 8 7 11 9 5 6 4 6 4 7 20 8 2 16 11 15 12 17 19 18 22
20 8 17 16 12 28 27 19 16 16 18 11 19 20 19 18 8 20 21 12 19 11 10 6 8 7 6 3 10 8 17 13 10 8 11 27 32 20 21 22 19 20 21 23 24
11 11 22 11 12 37 33 26 28 16 17 22 13 14 20 13 15 14 22 24 18 17 12 3 4 1 9 19 19 18 21 27 30 25 15 16 26 25 29 27 27 26 29 29 29
15 12 14 21 36 36 26 26 32 21 28 30 16 22 19 15 10 22 22 19 12 22 13 8 1 7 9 15 19 27 34 34 38 39 44 45 50 46 32 26 32 30 31 34 34
10 24 16 24 35 22 22 25 32 29 6 23 21 25 18 16 12 19 19 20 14 20 21 12 6 3 6 7 18 23 31 38 36 36 34 34 37 35 34 36 32 34 33 37 37
Wind_Direction_850mb
146 136 130 134 136 153 150 133 120 111 112 122 101 78 75 74 51 44 41 4 356 30 64 7 86 109 96 81 78 220 136 94 85 83 63 64 81 72 69 65 60 59 56 48 37
147 142 136 146 150 165 147 133 126 124 121 134 111 63 64 78 57 37 22 21 21 45 63 42 62 120 90 68 19 257 100 94 102 95 76 62 56 84 64 55 52 51 47 45 45
151 147 149 155 161 168 147 131 123 130 137 169 351 5 75 90 55 7 17 25 40 67 29 53 88 84 79 53 67 65 102 123 115 72 93 84 63 48 65 48 42 40 39 38 42
154 155 160 160 166 172 147 132 127 127 132 169 76 75 66 25 44 351 22 29 34 39 39 47 148 92 82 91 82 96 92 113 106 89 82 76 78 65 60 59 43 41 38 37 38
154 164 168 164 168 170 141 125 118 115 113 115 90 85 78 71 34 2 20 24 29 45 68 75 78 60 86 99 94 91 95 93 94 87 86 81 71 69 53 47 43 41 40 37 36
159 170 171 167 171 164 137 127 120 115 109 114 97 95 94 76 26 24 28 32 43 50 70 88 88 96 84 69 96 113 97 98 96 99 91 86 63 66 45 40 44 42 38 37 33
163 169 174 172 166 159 138 130 126 116 116 117 107 79 75 62 31 46 31 39 44 62 74 91 114 34 110 94 116 120 104 83 59 74 76 306 66 45 35 44 43 43 40 39 33
167 170 174 170 161 153 136 126 123 128 127 115 96 90 75 39 50 36 49 53 52 54 79 88 96 105 98 127 143 164 192 166 58 185 12 228 90 60 36 45 45 41 39 35 33
170 172 171 169 157 148 139 128 115 112 119 112 70 105 84 38 39 36 62 43 43 54 75 89 94 107 137 148 156 200 98 102 106 34 125 243 109 77 60 52 51 40 33 32 31
172 173 168 166 155 148 141 125 107 72 87 94 32 90 67 64 47 31 42 37 41 77 81 99 123 134 109 245 30 125 111 72 61 25 86 87 106 108 74 59 48 39 30 27 25
175 172 167 164 156 148 141 123 117 74 76 87 75 98 102 84 63 41 48 51 87 75 76 51 86 68 60 44 60 74 106 97 79 35 99 90 112 104 81 58 46 43 32 22 18
177 173 167 165 160 159 156 214 51 135 93 85 85 86 94 90 63 43 37 72 90 100 109 87 71 65 64 75 78 79 111 88 108 53 270 170 129 112 86 74 53 27 33 27 18
178 174 168 166 165 169 174 231 147 148 111 80 83 86 78 90 58 46 68 61 80 88 63 78 87 61 72 87 82 51 39 36 359 48 78 218 163 170 130 122 56 43 28 22 21
176 171 166 167 166 183 199 195 156 158 138 128 150 87 96 122 63 50 38 70 76 96 84 67 80 93 86 65 318 106 16 302 267 251 268 239 100 172 136 136 82 39 23 15 6
174 170 168 165 192 180 204 176 171 10 188 171 115 115 134 78 140 51 61 70 89 114 179 95 61 74 73 39 334 57 304 271 257 258 236 162 257 113 167 197 105 16 358 358 353
173 170 169 176 159 190 196 177 210 267 213 162 151 151 118 107 80 94 89 100 85 79 84 101 89 42 47 55 13 100 192 198 226 251 239 105 310 136 124 9 328 343 328 330 331
173 170 169 180 185 182 171 163 169 210 160 165 166 172 134 134 111 129 134 105 121 115 115 116 74 96 19 231 209 198 222 221 213 203 294 115 269 59 36 335 324 330 327 322 329
173 174 181 180 182 173 167 196 192 156 191 152 153 148 142 138 125 145 157 115 74 329 148 176 164 358 10 22 355 31 333 302 254 293 342 150 240 99 24 312 302 295 321 335 341
168 168 179 186 173 169 171 191 178 172 140 156 155 162 147 147 154 156 162 111 86 349 157 140 111 102 54 39 314 69 111 3 305 241 267 207 119 212 174 150 342 335 332 347 349
151 149 171 177 167 158 175 228 160 169 156 163 168 206 170 164 159 184 167 136 127 113 259 122 129 206 128 250 60 1 82 205 61 308 271 274 239 212 179 198 342 337 344 344 344
152 150 172 165 155 174 196 190 144 157 153 196 151 185 174 158 166 169 146 140 143 132 183 129 132 147 191 210 149 150 144 88 328 303 285 298 26 86 137 155 327 328 332 339 339
156 122 162 151 142 156 188 167 140 154 148 136 168 126 160 162 162 135 155 128 159 150 141 70 158 167 121 106 313 311 192 187 238 184 254 292 294 120 141 271 288 306 308 323 325
129 117 162 153 139 195 156 144 169 166 163 167 143 136 141 160 136 131 127 124 152 158 161 167 167 152 174 170 190 231 123 98 98 266 245 246 274 152 166 261 276 288 296 296 312
145 114 162 203 207 186 180 171 148 191 146 168 132 139 139 139 119 149 126 148 161 144 110 151 199 225 316 74 114 169 197 201 202 211 258 237 269 271 237 264 292 294 289 289 300
161 169 173 175 217 193 187 180 161 155 185 175 173 177 160 156 153 152 130 137 173 146 177 206 191 268 253 247 245 233 200 198 216 225 236 276 303 311 314 304 293 290 283 279 289
139 146 177 169 173 185 183 197 178 169 166 183 192 175 156 162 177 176 157 170 164 172 178 162 202 284 261 250 265 269 260 241 228 227 247 262 275 281 293 284 290 277 285 285 287
154 138 146 165 173 176 188 188 187 157 190 181 187 164 161 113 111 140 155 164 152 172 182 165 153 207 268 336 317 278 258 239 245 238 243 255 269 295 297 286 277 270 280 286 287